Tracking 28799 objects as of 18-Apr-2024
HD Live streaming from Space Station
objects crossing your sky now

COSMOS 2251 DEB

Track COSMOS 2251 DEB now!
10-day predictions


NORAD ID: 34682
Int'l Code: 1993-036YC
Perigee: 714.2 km
Apogee: 741.7 km
Inclination: 74.0 °
Period: 99.2 minutes
Semi major axis: 7098 km
RCS: 0.0176 m2 (small)
Launch date: June 16, 1993
Source: Commonwealth of Independent States (former USSR) (CIS)
Launch site: PLESETSK MISSILE AND SPACE COMPLEX (PKMTR)

Note: This is SATELLITE DEBRIS
Your satellite tracking list
Your tracking list is empty




NASA's NSSDC Master Catalog

Two Line Element Set (TLE):
1 34682U 93036YC  24108.49507125  .00006413  00000-0  16065-2 0  9996
2 34682  74.0419 147.6009 0019330  60.9362   7.4185 14.51485360798948
Source of the keplerian elements: AFSPC